Time,TemperatureF,DewpointF,PressureIn,WindDirection,WindDirectionDegrees,WindSpeedMPH,WindSpeedGustMPH,Humidity,HourlyPrecipIn,Conditions,Clouds,dailyrainin,SoftwareType,DateUTC
2013-06-16 00:00:00,77.7,73.9,30.05,ESE,121,4.0,8.0,88,0.00,,---,0.59,VWS V14.01,2013-06-16 04:00:00,
2013-06-16 00:01:00,77.7,73.9,30.04,ESE,121,4.0,4.0,88,0.00,,---,0.00,VWS V14.01,2013-06-16 04:01:00,
2013-06-16 00:06:00,77.7,73.9,30.04,East,101,2.0,7.0,88,0.00,,---,0.00,VWS V14.01,2013-06-16 04:06:00,
2013-06-16 00:10:00,77.7,73.9,30.05,ESE,115,5.0,7.0,88,0.00,,---,0.00,VWS V14.01,2013-06-16 04:10:00,
2013-06-16 00:11:00,77.7,73.9,30.05,ESE,115,5.0,6.0,88,0.00,,---,0.00,VWS V14.01,2013-06-16 04:11:00,
2013-06-16 00:16:00,77.7,73.9,30.05,ENE,77,4.0,7.0,88,0.00,,---,0.00,VWS V14.01,2013-06-16 04:16:00,
2013-06-16 00:20:00,77.7,73.9,30.05,East,86,2.0,7.0,88,0.00,,---,0.00,VWS V14.01,2013-06-16 04:20:00,
2013-06-16 00:21:00,77.7,73.9,30.05,East,86,3.0,3.0,88,0.00,,---,0.00,VWS V14.01,2013-06-16 04:21:00,
2013-06-16 00:26:00,77.7,73.9,30.05,East,84,3.0,6.0,88,0.00,,---,0.00,VWS V14.01,2013-06-16 04:26:00,
2013-06-16 00:30:00,77.6,73.8,30.05,East,86,5.0,6.0,88,0.00,,---,0.00,VWS V14.01,2013-06-16 04:30:00,
2013-06-16 00:31:00,77.6,73.8,30.05,East,97,4.0,7.0,88,0.00,,---,0.00,VWS V14.01,2013-06-16 04:31:00,
2013-06-16 00:36:00,77.6,73.8,30.05,East,97,1.0,7.0,88,0.00,,---,0.00,VWS V14.01,2013-06-16 04:36:00,
2013-06-16 00:40:00,77.6,73.8,30.05,East,97,1.0,7.0,88,0.00,,---,0.00,VWS V14.01,2013-06-16 04:40:00,
2013-06-16 00:41:00,77.6,73.8,30.05,East,97,0.0,2.0,88,0.00,,---,0.00,VWS V14.01,2013-06-16 04:41:00,
2013-06-16 00:46:00,77.6,74.1,30.05,East,89,4.0,7.0,89,0.00,,---,0.00,VWS V14.01,2013-06-16 04:46:00,
2013-06-16 00:50:00,77.6,74.1,30.05,East,89,3.0,7.0,89,0.00,,---,0.00,VWS V14.01,2013-06-16 04:50:00,
2013-06-16 00:51:00,77.6,74.1,30.05,East,89,2.0,3.0,89,0.00,,---,0.00,VWS V14.01,2013-06-16 04:51:00,
2013-06-16 00:56:00,77.6,74.1,30.05,East,89,2.0,6.0,89,0.00,,---,0.00,VWS V14.01,2013-06-16 04:56:00,
2013-06-16 01:00:00,77.6,74.1,30.05,East,86,4.0,7.0,89,0.00,,---,0.00,VWS V14.01,2013-06-16 05:00:00,
2013-06-16 01:01:00,77.6,74.1,30.05,East,86,4.0,4.0,89,0.00,,---,0.00,VWS V14.01,2013-06-16 05:01:00,
2013-06-16 01:06:00,77.6,74.1,30.05,East,86,2.0,6.0,89,0.00,,---,0.00,VWS V14.01,2013-06-16 05:06:00,
2013-06-16 01:10:00,77.6,74.1,30.05,East,93,2.0,6.0,89,0.00,,---,0.00,VWS V14.01,2013-06-16 05:10:00,
2013-06-16 01:11:00,77.6,74.1,30.05,East,93,5.0,5.0,89,0.00,,---,0.00,VWS V14.01,2013-06-16 05:11:00,
2013-06-16 01:16:00,77.6,74.1,30.05,ESE,104,2.0,7.0,89,0.00,,---,0.00,VWS V14.01,2013-06-16 05:16:00,
2013-06-16 01:20:00,77.7,74.2,30.05,East,93,1.0,7.0,89,0.00,,---,0.00,VWS V14.01,2013-06-16 05:20:00,
2013-06-16 01:21:00,77.7,74.2,30.05,East,93,4.0,4.0,89,0.00,,---,0.00,VWS V14.01,2013-06-16 05:21:00,
2013-06-16 01:26:00,77.7,74.2,30.05,East,80,6.0,9.0,89,0.00,,---,0.00,VWS V14.01,2013-06-16 05:26:00,
2013-06-16 01:30:00,77.8,74.3,30.05,East,97,6.0,11.0,89,0.00,,---,0.00,VWS V14.01,2013-06-16 05:30:00,
2013-06-16 01:31:00,77.8,74.3,30.04,East,96,4.0,6.0,89,0.00,,---,0.00,VWS V14.01,2013-06-16 05:31:00,
2013-06-16 01:36:00,77.8,74.3,30.05,East,97,2.0,8.0,89,0.00,,---,0.00,VWS V14.01,2013-06-16 05:36:00,
2013-06-16 01:40:00,77.8,74.0,30.05,ESE,107,4.0,8.0,88,0.00,,---,0.00,VWS V14.01,2013-06-16 05:40:00,
2013-06-16 01:41:00,77.8,74.0,30.04,ESE,105,6.0,6.0,88,0.00,,---,0.00,VWS V14.01,2013-06-16 05:41:00,
2013-06-16 01:46:00,77.8,74.3,30.04,East,86,6.0,8.0,89,0.00,,---,0.00,VWS V14.01,2013-06-16 05:46:00,
2013-06-16 01:50:00,77.8,74.3,30.04,East,79,3.0,8.0,89,0.00,,---,0.00,VWS V14.01,2013-06-16 05:50:00,
2013-06-16 01:51:00,77.8,74.3,30.04,East,84,6.0,6.0,89,0.00,,---,0.00,VWS V14.01,2013-06-16 05:51:00,
2013-06-16 01:56:00,77.8,74.3,30.04,SE,130,4.0,9.0,89,0.00,,---,0.00,VWS V14.01,2013-06-16 05:56:00,
2013-06-16 02:00:00,77.8,74.3,30.04,East,91,0.0,9.0,89,0.00,,---,0.00,VWS V14.01,2013-06-16 06:00:00,
2013-06-16 02:01:00,77.7,74.2,30.04,ESE,118,7.0,7.0,89,0.00,,---,0.00,VWS V14.01,2013-06-16 06:01:00,
2013-06-16 02:06:00,77.7,74.2,30.04,East,88,4.0,8.0,89,0.00,,---,0.00,VWS V14.01,2013-06-16 06:06:00,
2013-06-16 02:10:00,77.7,74.2,30.04,East,95,4.0,8.0,89,0.00,,---,0.00,VWS V14.01,2013-06-16 06:10:00,
2013-06-16 02:11:00,77.7,74.2,30.04,East,95,5.0,6.0,89,0.00,,---,0.00,VWS V14.01,2013-06-16 06:11:00,
2013-06-16 02:16:00,77.6,74.1,30.04,East,96,4.0,7.0,89,0.00,,---,0.00,VWS V14.01,2013-06-16 06:16:00,
2013-06-16 02:20:00,77.5,74.0,30.03,East,100,4.0,8.0,89,0.00,,---,0.00,VWS V14.01,2013-06-16 06:20:00,
2013-06-16 02:21:00,77.5,74.0,30.03,East,100,6.0,7.0,89,0.00,,---,0.00,VWS V14.01,2013-06-16 06:21:00,
2013-06-16 02:26:00,77.4,74.2,30.03,East,100,5.0,7.0,90,0.00,,---,0.00,VWS V14.01,2013-06-16 06:26:00,
2013-06-16 02:30:00,77.3,74.1,30.03,East,100,4.0,7.0,90,0.00,,---,0.00,VWS V14.01,2013-06-16 06:30:00,
2013-06-16 02:31:00,77.3,74.1,30.03,East,100,4.0,4.0,90,0.00,,---,0.00,VWS V14.01,2013-06-16 06:31:00,
2013-06-16 02:36:00,77.2,74.0,30.03,East,100,1.0,7.0,90,0.00,,---,0.00,VWS V14.01,2013-06-16 06:36:00,
2013-06-16 02:40:00,77.1,73.9,30.03,East,100,2.0,7.0,90,0.00,,---,0.00,VWS V14.01,2013-06-16 06:40:00,
2013-06-16 02:41:00,77.1,73.9,30.03,East,100,4.0,4.0,90,0.00,,---,0.00,VWS V14.01,2013-06-16 06:41:00,
2013-06-16 02:46:00,77.1,73.9,30.03,East,100,2.0,5.0,90,0.00,,---,0.00,VWS V14.01,2013-06-16 06:46:00,
2013-06-16 02:50:00,77.0,74.2,30.03,East,100,2.0,5.0,91,0.00,,---,0.00,VWS V14.01,2013-06-16 06:50:00,
2013-06-16 02:51:00,77.0,74.2,30.03,East,100,4.0,4.0,91,0.00,,---,0.00,VWS V14.01,2013-06-16 06:51:00,
2013-06-16 02:56:00,76.9,74.1,30.03,East,100,2.0,7.0,91,0.00,,---,0.00,VWS V14.01,2013-06-16 06:56:00,
2013-06-16 03:00:00,76.8,74.0,30.03,East,100,1.0,7.0,91,0.00,,---,0.00,VWS V14.01,2013-06-16 07:00:00,
2013-06-16 03:01:00,76.8,74.0,30.03,East,100,1.0,1.0,91,0.00,,---,0.00,VWS V14.01,2013-06-16 07:01:00,
2013-06-16 03:06:00,76.8,74.0,30.03,East,100,2.0,5.0,91,0.00,,---,0.00,VWS V14.01,2013-06-16 07:06:00,
2013-06-16 03:10:00,76.8,74.0,30.03,East,100,2.0,6.0,91,0.00,,---,0.00,VWS V14.01,2013-06-16 07:10:00,
2013-06-16 03:11:00,76.8,74.0,30.03,East,100,4.0,4.0,91,0.00,,---,0.00,VWS V14.01,2013-06-16 07:11:00,
2013-06-16 03:16:00,76.8,74.0,30.03,East,100,1.0,7.0,91,0.00,,---,0.00,VWS V14.01,2013-06-16 07:16:00,
2013-06-16 03:20:00,76.7,73.9,30.03,East,100,2.0,7.0,91,0.00,,---,0.00,VWS V14.01,2013-06-16 07:20:00,
2013-06-16 03:21:00,76.7,73.9,30.03,East,100,4.0,4.0,91,0.00,,---,0.00,VWS V14.01,2013-06-16 07:21:00,
2013-06-16 03:26:00,76.7,73.9,30.03,East,100,4.0,5.0,91,0.00,,---,0.00,VWS V14.01,2013-06-16 07:26:00,
2013-06-16 03:30:00,76.7,74.2,30.02,East,100,2.0,6.0,92,0.00,,---,0.00,VWS V14.01,2013-06-16 07:30:00,
2013-06-16 03:31:00,76.7,74.2,30.02,East,100,2.0,2.0,92,0.00,,---,0.00,VWS V14.01,2013-06-16 07:31:00,
2013-06-16 03:36:00,76.7,74.2,30.03,East,100,2.0,5.0,92,0.00,,---,0.00,VWS V14.01,2013-06-16 07:36:00,
2013-06-16 03:40:00,76.7,74.2,30.02,East,100,1.0,2.0,92,0.00,,---,0.00,VWS V14.01,2013-06-16 07:40:00,
2013-06-16 03:45:00,76.7,74.2,30.03,East,100,4.0,5.0,92,0.00,,---,0.00,VWS V14.01,2013-06-16 07:45:00,
2013-06-16 03:50:00,76.7,74.2,30.03,East,100,5.0,5.0,92,0.00,,---,0.00,VWS V14.01,2013-06-16 07:50:00,
2013-06-16 03:55:00,76.7,74.2,30.02,East,100,4.0,6.0,92,0.00,,---,0.00,VWS V14.01,2013-06-16 07:55:00,
2013-06-16 04:00:00,76.8,74.3,30.02,East,100,5.0,5.0,92,0.00,,---,0.00,VWS V14.01,2013-06-16 08:00:00,
2013-06-16 04:05:00,76.8,74.3,30.03,East,100,5.0,6.0,92,0.00,,---,0.00,VWS V14.01,2013-06-16 08:05:00,
2013-06-16 04:10:00,76.9,74.4,30.02,East,100,5.0,6.0,92,0.00,,---,0.00,VWS V14.01,2013-06-16 08:10:00,
2013-06-16 04:15:00,76.9,74.4,30.02,East,101,4.0,6.0,92,0.00,,---,0.00,VWS V14.01,2013-06-16 08:15:00,
2013-06-16 04:20:00,76.9,74.4,30.02,East,101,4.0,6.0,92,0.00,,---,0.00,VWS V14.01,2013-06-16 08:20:00,
2013-06-16 04:25:00,76.9,74.4,30.02,East,101,5.0,7.0,92,0.00,,---,0.00,VWS V14.01,2013-06-16 08:25:00,
2013-06-16 04:30:00,76.9,74.4,30.02,East,96,2.0,7.0,92,0.00,,---,0.00,VWS V14.01,2013-06-16 08:30:00,
2013-06-16 04:35:00,76.8,74.3,30.02,East,96,2.0,6.0,92,0.00,,---,0.00,VWS V14.01,2013-06-16 08:35:00,
2013-06-16 04:40:00,76.8,74.3,30.03,East,96,0.0,6.0,92,0.00,,---,0.00,VWS V14.01,2013-06-16 08:40:00,
2013-06-16 04:45:00,76.8,74.3,30.03,East,96,1.0,6.0,92,0.00,,---,0.00,VWS V14.01,2013-06-16 08:45:00,
2013-06-16 04:50:00,76.7,74.2,30.03,East,96,0.0,8.0,92,0.00,,---,0.00,VWS V14.01,2013-06-16 08:50:00,
2013-06-16 04:55:00,76.7,74.2,30.03,ESE,102,0.0,8.0,92,0.00,,---,0.00,VWS V14.01,2013-06-16 08:55:00,
2013-06-16 05:00:00,76.7,74.2,30.03,ESE,102,5.0,8.0,92,0.00,,---,0.00,VWS V14.01,2013-06-16 09:00:00,
2013-06-16 05:05:00,76.7,74.2,30.03,ESE,102,1.0,6.0,92,0.00,,---,0.00,VWS V14.01,2013-06-16 09:05:00,
2013-06-16 05:10:00,76.7,74.2,30.03,ESE,102,5.0,7.0,92,0.00,,---,0.00,VWS V14.01,2013-06-16 09:10:00,
2013-06-16 05:15:00,76.7,74.2,30.03,ESE,110,4.0,7.0,92,0.00,,---,0.00,VWS V14.01,2013-06-16 09:15:00,
2013-06-16 05:20:00,76.6,74.1,30.03,ESE,111,5.0,8.0,92,0.00,,---,0.00,VWS V14.01,2013-06-16 09:20:00,
2013-06-16 05:25:00,76.6,74.1,30.03,ESE,117,4.0,7.0,92,0.00,,---,0.00,VWS V14.01,2013-06-16 09:25:00,
2013-06-16 05:30:00,76.5,74.0,30.03,ESE,117,5.0,7.0,92,0.00,,---,0.00,VWS V14.01,2013-06-16 09:30:00,
2013-06-16 05:35:00,76.5,74.0,30.03,SE,126,1.0,8.0,92,0.00,,---,0.00,VWS V14.01,2013-06-16 09:35:00,
2013-06-16 05:40:00,76.4,74.2,30.03,SE,126,2.0,8.0,93,0.00,,---,0.00,VWS V14.01,2013-06-16 09:40:00,
2013-06-16 05:45:00,76.4,74.2,30.03,SE,125,2.0,7.0,93,0.00,,---,0.00,VWS V14.01,2013-06-16 09:45:00,
2013-06-16 05:50:00,76.4,74.2,30.03,ESE,123,5.0,8.0,93,0.00,,---,0.00,VWS V14.01,2013-06-16 09:50:00,
2013-06-16 05:55:00,76.3,74.1,30.03,ESE,121,6.0,7.0,93,0.00,,---,0.00,VWS V14.01,2013-06-16 09:55:00,
2013-06-16 06:00:00,76.2,74.0,30.04,ESE,121,5.0,8.0,93,0.00,,---,0.00,VWS V14.01,2013-06-16 10:00:00,
2013-06-16 06:05:00,76.2,74.0,30.04,ESE,121,4.0,6.0,93,0.00,,---,0.00,VWS V14.01,2013-06-16 10:05:00,
2013-06-16 06:10:00,76.2,74.0,30.04,ESE,121,4.0,7.0,93,0.00,,---,0.00,VWS V14.01,2013-06-16 10:10:00,
2013-06-16 06:15:00,76.2,74.0,30.04,ESE,119,4.0,8.0,93,0.00,,---,0.00,VWS V14.01,2013-06-16 10:15:00,
2013-06-16 06:20:00,76.1,73.9,30.04,ESE,119,4.0,8.0,93,0.00,,---,0.00,VWS V14.01,2013-06-16 10:20:00,
2013-06-16 06:25:00,76.1,73.9,30.04,ESE,118,4.0,5.0,93,0.00,,---,0.00,VWS V14.01,2013-06-16 10:25:00,
2013-06-16 06:30:00,76.0,73.8,30.04,ESE,119,1.0,5.0,93,0.00,,---,0.00,VWS V14.01,2013-06-16 10:30:00,
2013-06-16 06:35:00,76.0,73.8,30.04,ESE,119,0.0,5.0,93,0.00,,---,0.00,VWS V14.01,2013-06-16 10:35:00,
2013-06-16 06:40:00,76.0,73.8,30.04,ESE,118,0.0,6.0,93,0.00,,---,0.00,VWS V14.01,2013-06-16 10:40:00,
2013-06-16 06:45:00,76.0,73.8,30.05,ESE,118,0.0,6.0,93,0.00,,---,0.00,VWS V14.01,2013-06-16 10:45:00,
2013-06-16 06:50:00,76.0,73.8,30.05,ESE,118,4.0,6.0,93,0.00,,---,0.00,VWS V14.01,2013-06-16 10:50:00,
2013-06-16 06:55:00,76.0,74.2,30.05,ESE,119,4.0,5.0,94,0.00,,---,0.00,VWS V14.01,2013-06-16 10:55:00,
2013-06-16 07:00:00,76.0,74.2,30.05,ESE,118,2.0,5.0,94,0.00,,---,0.00,VWS V14.01,2013-06-16 11:00:00,
2013-06-16 07:05:00,76.0,74.2,30.05,ESE,119,1.0,7.0,94,0.00,,---,0.00,VWS V14.01,2013-06-16 11:05:00,
2013-06-16 07:10:00,76.1,74.2,30.05,ESE,119,0.0,7.0,94,0.00,,---,0.00,VWS V14.01,2013-06-16 11:10:00,
2013-06-16 07:15:00,76.2,74.3,30.05,ESE,119,4.0,6.0,94,0.00,,---,0.00,VWS V14.01,2013-06-16 11:15:00,
2013-06-16 07:20:00,76.4,74.6,30.05,ESE,119,1.0,6.0,94,0.00,,---,0.00,VWS V14.01,2013-06-16 11:20:00,
2013-06-16 07:25:00,76.7,74.5,30.05,ESE,119,4.0,6.0,93,0.00,,---,0.00,VWS V14.01,2013-06-16 11:25:00,
2013-06-16 07:30:00,77.0,74.8,30.05,ESE,119,4.0,6.0,93,0.00,,---,0.00,VWS V14.01,2013-06-16 11:30:00,
2013-06-16 07:35:00,77.3,75.1,30.05,ESE,119,2.0,7.0,93,0.00,,---,0.00,VWS V14.01,2013-06-16 11:35:00,
2013-06-16 07:40:00,77.6,75.1,30.05,ESE,119,6.0,8.0,92,0.00,,---,0.00,VWS V14.01,2013-06-16 11:40:00,
2013-06-16 07:45:00,77.9,75.4,30.05,ESE,119,2.0,6.0,92,0.00,,---,0.00,VWS V14.01,2013-06-16 11:45:00,
2013-06-16 07:50:00,78.2,75.4,30.05,ESE,116,5.0,7.0,91,0.00,,---,0.00,VWS V14.01,2013-06-16 11:50:00,
2013-06-16 07:55:00,78.4,75.2,30.05,East,101,0.0,6.0,90,0.00,,---,0.00,VWS V14.01,2013-06-16 11:55:00,
2013-06-16 08:00:00,78.7,75.5,30.05,ESE,108,5.0,9.0,90,0.00,,---,0.00,VWS V14.01,2013-06-16 12:00:00,
2013-06-16 08:05:00,79.0,75.8,30.05,ESE,109,5.0,9.0,90,0.00,,---,0.00,VWS V14.01,2013-06-16 12:05:00,
2013-06-16 08:10:00,79.1,75.6,30.05,East,101,6.0,9.0,89,0.00,,---,0.00,VWS V14.01,2013-06-16 12:10:00,
2013-06-16 08:15:00,79.3,75.8,30.06,East,91,7.0,9.0,89,0.00,,---,0.00,VWS V14.01,2013-06-16 12:15:00,
2013-06-16 08:20:00,79.6,76.1,30.06,East,96,0.0,9.0,89,0.00,,---,0.00,VWS V14.01,2013-06-16 12:20:00,
2013-06-16 08:25:00,79.9,76.0,30.06,ESE,121,2.0,9.0,88,0.00,,---,0.00,VWS V14.01,2013-06-16 12:25:00,
2013-06-16 08:30:00,80.3,76.1,30.06,ESE,106,2.0,12.0,87,0.00,,---,0.00,VWS V14.01,2013-06-16 12:30:00,
2013-06-16 08:35:00,80.3,75.7,30.06,SE,143,7.0,11.0,86,0.00,,---,0.00,VWS V14.01,2013-06-16 12:35:00,
2013-06-16 08:40:00,80.5,75.9,30.07,SSE,154,5.0,11.0,86,0.00,,---,0.00,VWS V14.01,2013-06-16 12:40:00,
2013-06-16 08:45:00,80.5,75.6,30.06,ESE,107,9.0,11.0,85,0.00,,---,0.00,VWS V14.01,2013-06-16 12:45:00,
2013-06-16 08:50:00,80.6,75.7,30.06,SE,136,2.0,11.0,85,0.00,,---,0.00,VWS V14.01,2013-06-16 12:50:00,
2013-06-16 08:55:00,81.0,76.1,30.06,ESE,105,8.0,8.0,85,0.00,,---,0.00,VWS V14.01,2013-06-16 12:55:00,
2013-06-16 09:00:00,81.3,76.4,30.07,SSE,153,8.0,11.0,85,0.00,,---,0.00,VWS V14.01,2013-06-16 13:00:00,
2013-06-16 09:05:00,81.6,76.7,30.06,SE,128,5.0,9.0,85,0.00,,---,0.00,VWS V14.01,2013-06-16 13:05:00,
2013-06-16 09:10:00,82.1,76.8,30.06,ESE,116,5.0,9.0,84,0.00,,---,0.00,VWS V14.01,2013-06-16 13:10:00,
2013-06-16 09:15:00,82.2,76.5,30.06,SE,144,6.0,9.0,83,0.00,,---,0.00,VWS V14.01,2013-06-16 13:15:00,
2013-06-16 09:20:00,82.2,76.2,30.06,ESE,121,6.0,9.0,82,0.00,,---,0.00,VWS V14.01,2013-06-16 13:20:00,
2013-06-16 09:25:00,81.9,75.9,30.07,SSE,157,9.0,12.0,82,0.00,,---,0.00,VWS V14.01,2013-06-16 13:25:00,
2013-06-16 09:30:00,81.9,75.9,30.06,ESE,117,5.0,12.0,82,0.00,,---,0.00,VWS V14.01,2013-06-16 13:30:00,
2013-06-16 09:35:00,81.9,75.9,30.07,SE,141,7.0,11.0,82,0.00,,---,0.00,VWS V14.01,2013-06-16 13:35:00,
2013-06-16 09:40:00,81.8,75.4,30.07,SE,142,5.0,11.0,81,0.00,,---,0.00,VWS V14.01,2013-06-16 13:40:00,
2013-06-16 09:45:00,82.1,75.7,30.07,SSE,150,5.0,8.0,81,0.00,,---,0.00,VWS V14.01,2013-06-16 13:45:00,
2013-06-16 09:50:00,82.3,75.9,30.07,SSE,155,7.0,9.0,81,0.00,,---,0.00,VWS V14.01,2013-06-16 13:50:00,
2013-06-16 09:55:00,82.5,76.1,30.06,SSE,153,6.0,9.0,81,0.00,,---,0.00,VWS V14.01,2013-06-16 13:55:00,
2013-06-16 10:00:00,82.9,76.5,30.06,SSE,148,8.0,9.0,81,0.00,,---,0.00,VWS V14.01,2013-06-16 14:00:00,
2013-06-16 10:05:00,83.7,76.5,30.06,ESE,107,6.0,11.0,79,0.00,,---,0.00,VWS V14.01,2013-06-16 14:05:00,
2013-06-16 10:10:00,83.7,76.1,30.06,SE,140,4.0,11.0,78,0.00,,---,0.00,VWS V14.01,2013-06-16 14:10:00,
2013-06-16 10:15:00,84.2,76.2,30.06,ESE,123,1.0,8.0,77,0.00,,---,0.00,VWS V14.01,2013-06-16 14:15:00,
2013-06-16 10:20:00,84.8,77.2,30.06,SE,145,8.0,8.0,78,0.00,,---,0.00,VWS V14.01,2013-06-16 14:20:00,
2013-06-16 10:25:00,85.3,76.5,30.06,SE,130,6.0,9.0,75,0.00,,---,0.00,VWS V14.01,2013-06-16 14:25:00,
2013-06-16 10:30:00,85.7,77.3,30.06,SE,136,8.0,9.0,76,0.00,,---,0.00,VWS V14.01,2013-06-16 14:30:00,
2013-06-16 10:35:00,85.9,77.5,30.06,ENE,70,2.0,8.0,76,0.00,,---,0.00,VWS V14.01,2013-06-16 14:35:00,
2013-06-16 10:40:00,85.9,77.1,30.06,ESE,107,5.0,8.0,75,0.00,,---,0.00,VWS V14.01,2013-06-16 14:40:00,
2013-06-16 10:45:00,86.2,77.3,30.06,ENE,67,6.0,9.0,75,0.00,,---,0.00,VWS V14.01,2013-06-16 14:45:00,
2013-06-16 10:50:00,86.9,77.2,30.06,SSE,157,7.0,9.0,73,0.00,,---,0.00,VWS V14.01,2013-06-16 14:50:00,
2013-06-16 10:55:00,86.9,76.8,30.06,ESE,120,5.0,11.0,72,0.00,,---,0.00,VWS V14.01,2013-06-16 14:55:00,
2013-06-16 11:00:00,86.5,76.4,30.06,SE,141,8.0,11.0,72,0.00,,---,0.00,VWS V14.01,2013-06-16 15:00:00,
2013-06-16 11:05:00,86.1,76.0,30.06,SE,131,0.0,5.0,72,0.00,,---,0.00,VWS V14.01,2013-06-16 15:05:00,
2013-06-16 11:10:00,86.2,76.1,30.06,East,98,6.0,9.0,72,0.00,,---,0.00,VWS V14.01,2013-06-16 15:10:00,
2013-06-16 11:15:00,86.9,76.4,30.05,SSE,165,4.0,9.0,71,0.00,,---,0.00,VWS V14.01,2013-06-16 15:15:00,
2013-06-16 11:20:00,87.3,76.8,30.06,East,88,6.0,9.0,71,0.00,,---,0.00,VWS V14.01,2013-06-16 15:20:00,
2013-06-16 11:25:00,87.7,76.3,30.06,SSE,147,7.0,8.0,69,0.00,,---,0.00,VWS V14.01,2013-06-16 15:25:00,
2013-06-16 11:30:00,88.2,78.4,30.06,NE,52,8.0,9.0,73,0.00,,---,0.00,VWS V14.01,2013-06-16 15:30:00,
2013-06-16 11:35:00,88.1,75.3,30.05,East,88,6.0,14.0,66,0.00,,---,0.00,VWS V14.01,2013-06-16 15:35:00,
2013-06-16 11:40:00,87.9,75.6,30.05,SE,144,7.0,14.0,67,0.00,,---,0.00,VWS V14.01,2013-06-16 15:40:00,
2013-06-16 11:45:00,88.3,77.3,30.05,NE,40,6.0,7.0,70,0.00,,---,0.00,VWS V14.01,2013-06-16 15:45:00,
2013-06-16 11:50:00,88.4,75.6,30.06,SE,127,7.0,9.0,66,0.00,,---,0.00,VWS V14.01,2013-06-16 15:50:00,
2013-06-16 11:55:00,88.2,75.4,30.05,SE,141,7.0,9.0,66,0.00,,---,0.00,VWS V14.01,2013-06-16 15:55:00,
2013-06-16 12:00:00,87.6,74.8,30.06,East,101,2.0,9.0,66,0.00,,---,0.00,VWS V14.01,2013-06-16 16:00:00,
2013-06-16 12:05:00,87.7,76.7,30.05,SW,215,5.0,5.0,70,0.00,,---,0.00,VWS V14.01,2013-06-16 16:05:00,
2013-06-16 12:10:00,88.4,76.1,30.05,ESE,107,6.0,11.0,67,0.00,,---,0.00,VWS V14.01,2013-06-16 16:10:00,
2013-06-16 12:15:00,88.5,75.7,30.05,SSE,147,7.0,9.0,66,0.00,,---,0.00,VWS V14.01,2013-06-16 16:15:00,
2013-06-16 12:20:00,88.8,75.5,30.05,ESE,121,2.0,9.0,65,0.00,,---,0.00,VWS V14.01,2013-06-16 16:20:00,
2013-06-16 12:25:00,88.2,75.9,30.05,SE,146,0.0,7.0,67,0.00,,---,0.00,VWS V14.01,2013-06-16 16:25:00,
2013-06-16 12:30:00,87.2,74.5,30.05,SE,127,1.0,7.0,66,0.00,,---,0.00,VWS V14.01,2013-06-16 16:30:00,
2013-06-16 12:35:00,86.6,75.2,30.05,SE,131,4.0,7.0,69,0.00,,---,0.00,VWS V14.01,2013-06-16 16:35:00,
2013-06-16 12:40:00,86.4,75.0,30.05,SE,143,5.0,7.0,69,0.00,,---,0.00,VWS V14.01,2013-06-16 16:40:00,
2013-06-16 12:45:00,87.2,76.2,30.05,South,184,3.0,6.0,70,0.00,,---,0.00,VWS V14.01,2013-06-16 16:45:00,
2013-06-16 12:50:00,88.6,76.2,30.05,SE,144,6.0,9.0,67,0.00,,---,0.00,VWS V14.01,2013-06-16 16:50:00,
2013-06-16 12:55:00,89.3,75.1,30.04,SSE,149,6.0,10.0,63,0.00,,---,0.00,VWS V14.01,2013-06-16 16:55:00,
2013-06-16 13:00:00,89.7,75.0,30.05,SSE,148,4.0,10.0,62,0.00,,---,0.00,VWS V14.01,2013-06-16 17:00:00,
2013-06-16 13:05:00,90.1,76.3,30.05,SE,132,6.0,8.0,64,0.00,,---,0.00,VWS V14.01,2013-06-16 17:05:00,
2013-06-16 13:10:00,89.9,77.9,30.05,SE,138,5.0,9.0,68,0.00,,---,0.00,VWS V14.01,2013-06-16 17:10:00,
2013-06-16 13:14:00,89.8,76.9,30.04,SSE,168,7.0,8.0,66,0.00,,---,0.00,VWS V14.01,2013-06-16 17:14:00,
2013-06-16 13:19:00,90.1,77.7,30.05,SSW,193,1.0,8.0,67,0.00,,---,0.00,VWS V14.01,2013-06-16 17:19:00,
2013-06-16 13:20:00,90.2,74.4,30.05,SSW,194,3.0,8.0,60,0.00,,---,0.00,VWS V14.01,2013-06-16 17:20:00,
2013-06-16 13:24:00,90.3,76.5,30.04,SSW,198,4.0,7.0,64,0.00,,---,0.00,VWS V14.01,2013-06-16 17:24:00,
2013-06-16 13:29:00,89.8,76.5,30.04,South,175,5.0,9.0,65,0.00,,---,0.00,VWS V14.01,2013-06-16 17:29:00,
2013-06-16 13:30:00,89.8,76.5,30.04,SE,144,4.0,9.0,65,0.00,,---,0.00,VWS V14.01,2013-06-16 17:30:00,
2013-06-16 13:34:00,90.6,74.8,30.04,SE,142,1.0,5.0,60,0.00,,---,0.00,VWS V14.01,2013-06-16 17:34:00,
2013-06-16 13:39:00,90.6,77.7,30.04,ENE,61,5.0,9.0,66,0.00,,---,0.00,VWS V14.01,2013-06-16 17:39:00,
2013-06-16 13:40:00,90.6,75.3,30.04,East,90,5.0,9.0,61,0.00,,---,0.00,VWS V14.01,2013-06-16 17:40:00,
2013-06-16 13:44:00,90.1,76.3,30.04,ENE,78,7.0,11.0,64,0.00,,---,0.00,VWS V14.01,2013-06-16 17:44:00,
2013-06-16 13:49:00,89.9,76.1,30.04,SSE,159,5.0,11.0,64,0.00,,---,0.00,VWS V14.01,2013-06-16 17:49:00,
2013-06-16 13:50:00,89.9,75.1,30.04,SSE,161,1.0,11.0,62,0.00,,---,0.00,VWS V14.01,2013-06-16 17:50:00,
2013-06-16 13:54:00,89.8,75.5,30.04,ESE,113,8.0,11.0,63,0.00,,---,0.00,VWS V14.01,2013-06-16 17:54:00,
2013-06-16 13:59:00,90.3,77.4,30.04,SSE,161,2.0,11.0,66,0.00,,---,0.00,VWS V14.01,2013-06-16 17:59:00,
2013-06-16 14:00:00,90.4,76.1,30.04,SSE,161,5.0,11.0,63,0.00,,---,0.00,VWS V14.01,2013-06-16 18:00:00,
2013-06-16 14:04:00,90.7,75.9,30.03,East,98,8.0,14.0,62,0.00,,---,0.00,VWS V14.01,2013-06-16 18:04:00,
2013-06-16 14:09:00,90.6,75.3,30.03,SSE,157,5.0,14.0,61,0.00,,---,0.00,VWS V14.01,2013-06-16 18:09:00,
2013-06-16 14:10:00,90.6,75.3,30.03,SSE,155,7.0,14.0,61,0.00,,---,0.00,VWS V14.01,2013-06-16 18:10:00,
2013-06-16 14:14:00,90.7,75.9,30.03,ESE,115,6.0,10.0,62,0.00,,---,0.00,VWS V14.01,2013-06-16 18:14:00,
2013-06-16 14:19:00,90.3,75.5,30.03,East,89,2.0,11.0,62,0.00,,---,0.00,VWS V14.01,2013-06-16 18:19:00,
2013-06-16 14:20:00,90.2,75.9,30.03,East,91,5.0,11.0,63,0.00,,---,0.00,VWS V14.01,2013-06-16 18:20:00,
2013-06-16 14:24:00,90.4,77.0,30.03,NE,53,4.0,10.0,65,0.00,,---,0.00,VWS V14.01,2013-06-16 18:24:00,
2013-06-16 14:29:00,90.8,77.4,30.02,ENE,58,3.0,10.0,65,0.00,,---,0.00,VWS V14.01,2013-06-16 18:29:00,
2013-06-16 14:30:00,90.9,76.6,30.02,ENE,59,5.0,10.0,63,0.00,,---,0.00,VWS V14.01,2013-06-16 18:30:00,
2013-06-16 14:34:00,91.4,75.1,30.03,ESE,122,6.0,11.0,59,0.00,,---,0.00,VWS V14.01,2013-06-16 18:34:00,
2013-06-16 14:39:00,90.5,74.7,30.02,SE,127,4.0,11.0,60,0.00,,---,0.00,VWS V14.01,2013-06-16 18:39:00,
2013-06-16 14:40:00,90.3,75.5,30.02,SE,127,1.0,11.0,62,0.00,,---,0.00,VWS V14.01,2013-06-16 18:40:00,
2013-06-16 14:44:00,90.4,74.6,30.02,SE,137,4.0,9.0,60,0.00,,---,0.00,VWS V14.01,2013-06-16 18:44:00,
2013-06-16 14:49:00,90.8,74.5,30.02,SE,137,4.0,12.0,59,0.00,,---,0.00,VWS V14.01,2013-06-16 18:49:00,
2013-06-16 14:50:00,90.9,75.6,30.02,ESE,121,6.0,12.0,61,0.00,,---,0.00,VWS V14.01,2013-06-16 18:50:00,
2013-06-16 14:54:00,90.8,74.5,30.01,ESE,109,5.0,9.0,59,0.00,,---,0.00,VWS V14.01,2013-06-16 18:54:00,
2013-06-16 14:59:00,91.2,76.8,30.01,ESE,109,6.0,9.0,63,0.00,,---,0.00,VWS V14.01,2013-06-16 18:59:00,
2013-06-16 15:00:00,91.3,76.0,30.01,ESE,109,4.0,9.0,61,0.00,,---,0.00,VWS V14.01,2013-06-16 19:00:00,
2013-06-16 15:04:00,91.5,74.1,30.01,East,86,5.0,8.0,57,0.00,,---,0.00,VWS V14.01,2013-06-16 19:04:00,
2013-06-16 15:09:00,91.1,74.8,30.01,East,84,3.0,8.0,59,0.00,,---,0.00,VWS V14.01,2013-06-16 19:09:00,
2013-06-16 15:10:00,91.3,75.0,30.01,East,81,5.0,8.0,59,0.00,,---,0.00,VWS V14.01,2013-06-16 19:10:00,
2013-06-16 15:14:00,91.7,73.8,30.01,ESE,119,2.0,12.0,56,0.00,,---,0.00,VWS V14.01,2013-06-16 19:14:00,
2013-06-16 15:19:00,91.6,74.7,30.01,SE,146,6.0,12.0,58,0.00,,---,0.00,VWS V14.01,2013-06-16 19:19:00,
2013-06-16 15:20:00,91.5,73.1,30.01,SE,145,5.0,12.0,55,0.00,,---,0.00,VWS V14.01,2013-06-16 19:20:00,
2013-06-16 15:24:00,91.6,73.2,30.00,SE,145,0.0,5.0,55,0.00,,---,0.00,VWS V14.01,2013-06-16 19:24:00,
2013-06-16 15:29:00,92.3,76.4,30.01,ESE,105,5.0,9.0,60,0.00,,---,0.00,VWS V14.01,2013-06-16 19:29:00,
2013-06-16 15:30:00,92.4,75.0,30.01,SSE,161,7.0,9.0,57,0.00,,---,0.00,VWS V14.01,2013-06-16 19:30:00,
2013-06-16 15:34:00,91.8,73.3,30.01,SSE,157,4.0,7.0,55,0.00,,---,0.00,VWS V14.01,2013-06-16 19:34:00,
2013-06-16 15:39:00,90.8,74.0,30.01,SSE,167,1.0,7.0,58,0.00,,---,0.00,VWS V14.01,2013-06-16 19:39:00,
2013-06-16 15:40:00,90.7,74.4,30.01,SSE,167,2.0,7.0,59,0.00,,---,0.00,VWS V14.01,2013-06-16 19:40:00,
2013-06-16 15:44:00,90.8,75.5,30.01,SE,138,4.0,9.0,61,0.00,,---,0.00,VWS V14.01,2013-06-16 19:44:00,
2013-06-16 15:49:00,92.3,75.9,30.00,SE,130,4.0,9.0,59,0.00,,---,0.00,VWS V14.01,2013-06-16 19:49:00,
2013-06-16 15:50:00,92.4,73.9,30.00,SSE,164,4.0,9.0,55,0.00,,---,0.00,VWS V14.01,2013-06-16 19:50:00,
2013-06-16 15:54:00,92.8,74.3,30.00,SSE,159,8.0,9.0,55,0.00,,---,0.00,VWS V14.01,2013-06-16 19:54:00,
2013-06-16 15:59:00,92.8,73.7,30.00,SE,124,6.0,12.0,54,0.00,,---,0.00,VWS V14.01,2013-06-16 19:59:00,
2013-06-16 16:00:00,92.7,75.2,30.00,SE,130,8.0,12.0,57,0.00,,---,0.00,VWS V14.01,2013-06-16 20:00:00,
2013-06-16 16:04:00,92.8,75.3,30.00,SE,142,8.0,10.0,57,0.00,,---,0.00,VWS V14.01,2013-06-16 20:04:00,
2013-06-16 16:09:00,91.8,72.8,29.99,SE,141,7.0,10.0,54,0.00,,---,0.00,VWS V14.01,2013-06-16 20:09:00,
2013-06-16 16:10:00,91.5,73.6,29.99,SE,130,5.0,10.0,56,0.00,,---,0.00,VWS V14.01,2013-06-16 20:10:00,
2013-06-16 16:14:00,90.9,74.1,29.99,SE,131,4.0,7.0,58,0.00,,---,0.00,VWS V14.01,2013-06-16 20:14:00,
2013-06-16 16:19:00,91.7,73.2,29.99,SE,131,0.0,7.0,55,0.00,,---,0.00,VWS V14.01,2013-06-16 20:19:00,
2013-06-16 16:20:00,91.9,77.5,29.98,SE,131,0.0,7.0,63,0.00,,---,0.00,VWS V14.01,2013-06-16 20:20:00,
2013-06-16 16:24:00,92.8,73.2,29.98,SE,142,4.0,7.0,53,0.00,,---,0.00,VWS V14.01,2013-06-16 20:24:00,
2013-06-16 16:29:00,92.8,73.2,29.98,SE,124,2.0,11.0,53,0.00,,---,0.00,VWS V14.01,2013-06-16 20:29:00,
2013-06-16 16:30:00,92.5,74.5,29.98,ESE,121,6.0,11.0,56,0.00,,---,0.00,VWS V14.01,2013-06-16 20:30:00,
2013-06-16 16:34:00,92.4,74.4,29.98,SE,132,1.0,9.0,56,0.00,,---,0.00,VWS V14.01,2013-06-16 20:34:00,
2013-06-16 16:39:00,91.9,72.3,29.98,SE,146,8.0,9.0,53,0.00,,---,0.00,VWS V14.01,2013-06-16 20:39:00,
2013-06-16 16:40:00,91.8,73.3,29.98,SSE,159,5.0,9.0,55,0.00,,---,0.00,VWS V14.01,2013-06-16 20:40:00,
2013-06-16 16:44:00,92.0,71.9,29.98,SSE,157,2.0,8.0,52,0.00,,---,0.00,VWS V14.01,2013-06-16 20:44:00,
2013-06-16 16:49:00,92.3,72.7,29.98,SSE,152,7.0,8.0,53,0.00,,---,0.00,VWS V14.01,2013-06-16 20:49:00,
2013-06-16 16:50:00,92.4,71.7,29.98,SE,140,5.0,8.0,51,0.00,,---,0.00,VWS V14.01,2013-06-16 20:50:00,
2013-06-16 16:54:00,92.4,72.8,29.98,ESE,117,0.0,8.0,53,0.00,,---,0.00,VWS V14.01,2013-06-16 20:54:00,
2013-06-16 16:59:00,92.8,74.8,29.98,ESE,117,0.0,8.0,56,0.00,,---,0.00,VWS V14.01,2013-06-16 20:59:00,
2013-06-16 17:00:00,92.9,73.3,29.98,ESE,118,6.0,8.0,53,0.00,,---,0.00,VWS V14.01,2013-06-16 21:00:00,
2013-06-16 17:04:00,93.1,74.6,29.98,ESE,118,6.0,6.0,55,0.00,,---,0.00,VWS V14.01,2013-06-16 21:04:00,
2013-06-16 17:09:00,93.3,73.1,29.98,SE,132,0.0,8.0,52,0.00,,---,0.00,VWS V14.01,2013-06-16 21:09:00,
2013-06-16 17:10:00,93.3,72.5,29.98,SE,132,5.0,8.0,51,0.00,,---,0.00,VWS V14.01,2013-06-16 21:10:00,
2013-06-16 17:14:00,93.0,72.8,29.98,SE,144,5.0,10.0,52,0.00,,---,0.00,VWS V14.01,2013-06-16 21:14:00,
2013-06-16 17:19:00,93.2,74.1,29.98,SSE,167,0.0,10.0,54,0.00,,---,0.00,VWS V14.01,2013-06-16 21:19:00,
2013-06-16 17:20:00,93.4,73.7,29.98,SSE,167,5.0,10.0,53,0.00,,---,0.00,VWS V14.01,2013-06-16 21:20:00,
2013-06-16 17:24:00,93.3,71.9,29.98,SSE,158,5.0,6.0,50,0.00,,---,0.00,VWS V14.01,2013-06-16 21:24:00,
2013-06-16 17:29:00,93.2,74.1,29.98,SSE,165,2.0,6.0,54,0.00,,---,0.00,VWS V14.01,2013-06-16 21:29:00,
2013-06-16 17:30:00,93.1,72.3,29.97,SSE,165,5.0,6.0,51,0.00,,---,0.00,VWS V14.01,2013-06-16 21:30:00,
2013-06-16 17:34:00,92.9,72.7,29.98,SSE,149,6.0,8.0,52,0.00,,---,0.00,VWS V14.01,2013-06-16 21:34:00,
2013-06-16 17:39:00,92.6,72.4,29.97,SE,124,4.0,11.0,52,0.00,,---,0.00,VWS V14.01,2013-06-16 21:39:00,
2013-06-16 17:40:00,92.5,72.9,29.97,SE,124,2.0,11.0,53,0.00,,---,0.00,VWS V14.01,2013-06-16 21:40:00,
2013-06-16 17:44:00,92.2,72.6,29.97,SE,135,6.0,9.0,53,0.00,,---,0.00,VWS V14.01,2013-06-16 21:44:00,
2013-06-16 17:49:00,91.7,72.2,29.97,SSE,155,7.0,11.0,53,0.00,,---,0.00,VWS V14.01,2013-06-16 21:49:00,
2013-06-16 17:50:00,91.6,72.6,29.97,SSE,156,5.0,11.0,54,0.00,,---,0.00,VWS V14.01,2013-06-16 21:50:00,
2013-06-16 17:54:00,91.5,72.5,29.98,SSE,148,0.0,7.0,54,0.00,,---,0.00,VWS V14.01,2013-06-16 21:54:00,
2013-06-16 17:59:00,91.4,72.4,29.98,SSE,149,1.0,7.0,54,0.00,,---,0.00,VWS V14.01,2013-06-16 21:59:00,
2013-06-16 18:00:00,91.4,72.4,29.99,SSE,149,2.0,7.0,54,0.00,,---,0.00,VWS V14.01,2013-06-16 22:00:00,
2013-06-16 18:04:00,91.3,72.3,29.98,SSE,154,6.0,7.0,54,0.00,,---,0.00,VWS V14.01,2013-06-16 22:04:00,
2013-06-16 18:09:00,90.9,73.6,29.98,SE,141,8.0,10.0,57,0.00,,---,0.00,VWS V14.01,2013-06-16 22:09:00,
2013-06-16 18:10:00,90.8,74.0,29.98,SSE,155,7.0,10.0,58,0.00,,---,0.00,VWS V14.01,2013-06-16 22:10:00,
2013-06-16 18:14:00,90.3,74.5,29.99,SE,128,6.0,11.0,60,0.00,,---,0.00,VWS V14.01,2013-06-16 22:14:00,
2013-06-16 18:19:00,89.7,75.0,29.99,SE,134,7.0,13.0,62,0.00,,---,0.00,VWS V14.01,2013-06-16 22:19:00,
2013-06-16 18:20:00,89.5,75.2,29.99,SE,132,8.0,13.0,63,0.00,,---,0.00,VWS V14.01,2013-06-16 22:20:00,
2013-06-16 18:24:00,89.2,75.4,29.99,SE,136,10.0,11.0,64,0.00,,---,0.00,VWS V14.01,2013-06-16 22:24:00,
2013-06-16 18:29:00,88.6,75.3,29.98,SSE,147,9.0,13.0,65,0.00,,---,0.00,VWS V14.01,2013-06-16 22:29:00,
2013-06-16 18:30:00,88.5,75.2,29.98,SE,135,9.0,13.0,65,0.00,,---,0.00,VWS V14.01,2013-06-16 22:30:00,
2013-06-16 18:34:00,88.2,75.4,29.98,SE,126,7.0,10.0,66,0.00,,---,0.00,VWS V14.01,2013-06-16 22:34:00,
2013-06-16 18:39:00,87.9,76.0,29.98,ESE,103,6.0,10.0,68,0.00,,---,0.00,VWS V14.01,2013-06-16 22:39:00,
2013-06-16 18:40:00,87.9,75.6,29.98,SSE,163,2.0,10.0,67,0.00,,---,0.00,VWS V14.01,2013-06-16 22:40:00,
2013-06-16 18:44:00,87.6,75.3,29.98,ESE,115,6.0,13.0,67,0.00,,---,0.00,VWS V14.01,2013-06-16 22:44:00,
2013-06-16 18:49:00,87.2,75.8,29.98,East,88,10.0,13.0,69,0.00,,---,0.00,VWS V14.01,2013-06-16 22:49:00,
2013-06-16 18:50:00,87.1,75.3,29.98,SE,135,10.0,14.0,68,0.00,,---,0.00,VWS V14.01,2013-06-16 22:50:00,
2013-06-16 18:54:00,86.9,75.1,29.97,ESE,121,5.0,14.0,68,0.00,,---,0.00,VWS V14.01,2013-06-16 22:54:00,
2013-06-16 18:59:00,86.8,75.0,29.98,SE,144,7.0,14.0,68,0.00,,---,0.00,VWS V14.01,2013-06-16 22:59:00,
2013-06-16 19:00:00,86.7,75.3,29.98,SE,138,7.0,14.0,69,0.00,,---,0.00,VWS V14.01,2013-06-16 23:00:00,
2013-06-16 19:04:00,86.7,75.3,29.99,ESE,111,9.0,11.0,69,0.00,,---,0.00,VWS V14.01,2013-06-16 23:04:00,
2013-06-16 19:09:00,86.5,75.1,29.99,SE,132,6.0,11.0,69,0.00,,---,0.00,VWS V14.01,2013-06-16 23:09:00,
2013-06-16 19:10:00,86.5,75.6,29.99,SE,132,2.0,11.0,70,0.00,,---,0.00,VWS V14.01,2013-06-16 23:10:00,
2013-06-16 19:14:00,86.4,75.5,29.99,SE,132,4.0,8.0,70,0.00,,---,0.00,VWS V14.01,2013-06-16 23:14:00,
2013-06-16 19:19:00,86.3,75.4,29.99,ESE,113,2.0,9.0,70,0.00,,---,0.00,VWS V14.01,2013-06-16 23:19:00,
2013-06-16 19:20:00,86.3,75.4,29.99,SE,132,6.0,9.0,70,0.00,,---,0.00,VWS V14.01,2013-06-16 23:20:00,
2013-06-16 19:24:00,86.2,75.7,29.99,South,173,7.0,8.0,71,0.00,,---,0.00,VWS V14.01,2013-06-16 23:24:00,
2013-06-16 19:29:00,86.1,75.2,29.99,SSE,147,5.0,12.0,70,0.00,,---,0.00,VWS V14.01,2013-06-16 23:29:00,
2013-06-16 19:30:00,86.0,75.1,29.99,SSE,152,7.0,12.0,70,0.00,,---,0.00,VWS V14.01,2013-06-16 23:30:00,
2013-06-16 19:34:00,86.0,75.1,29.99,SE,136,5.0,11.0,70,0.00,,---,0.00,VWS V14.01,2013-06-16 23:34:00,
2013-06-16 19:39:00,85.8,74.9,29.99,SSE,165,6.0,11.0,70,0.00,,---,0.00,VWS V14.01,2013-06-16 23:39:00,
2013-06-16 19:40:00,85.8,75.3,29.99,SSE,161,0.0,11.0,71,0.00,,---,0.00,VWS V14.01,2013-06-16 23:40:00,
2013-06-16 19:44:00,85.7,75.6,29.99,SSE,161,1.0,4.0,72,0.00,,---,0.00,VWS V14.01,2013-06-16 23:44:00,
2013-06-16 19:49:00,85.6,75.1,29.99,SSE,160,2.0,6.0,71,0.00,,---,0.00,VWS V14.01,2013-06-16 23:49:00,
2013-06-16 19:50:00,85.6,75.5,29.99,SSE,160,2.0,6.0,72,0.00,,---,0.00,VWS V14.01,2013-06-16 23:50:00,
2013-06-16 19:54:00,85.4,75.8,30.00,West,279,5.0,6.0,73,0.00,,---,0.00,VWS V14.01,2013-06-16 23:54:00,
2013-06-16 19:59:00,84.5,76.5,30.00,WNW,294,8.0,12.0,77,0.02,,---,0.02,VWS V14.01,2013-06-16 23:59:00,
2013-06-16 20:00:00,83.9,76.7,30.00,NW,317,9.0,12.0,79,0.02,,---,0.02,VWS V14.01,2013-06-17 00:00:00,
2013-06-16 20:04:00,82.3,76.3,30.01,NW,326,7.0,12.0,82,0.03,,---,0.03,VWS V14.01,2013-06-17 00:04:00,
2013-06-16 20:09:00,79.7,75.2,30.01,NW,320,0.0,12.0,86,0.12,,---,0.12,VWS V14.01,2013-06-17 00:09:00,
2013-06-16 20:10:00,79.4,74.8,30.01,NW,320,1.0,12.0,86,0.17,,---,0.17,VWS V14.01,2013-06-17 00:10:00,
2013-06-16 20:14:00,78.7,74.8,30.01,SW,236,3.0,3.0,88,0.24,,---,0.24,VWS V14.01,2013-06-17 00:14:00,
2013-06-16 20:19:00,78.2,74.7,30.01,NNE,30,4.0,5.0,89,0.40,,---,0.40,VWS V14.01,2013-06-17 00:19:00,
2013-06-16 20:20:00,78.0,74.5,30.01,NE,42,7.0,9.0,89,0.46,,---,0.46,VWS V14.01,2013-06-17 00:20:00,
2013-06-16 20:24:00,77.4,74.2,30.01,NW,315,12.0,14.0,90,0.58,,---,0.58,VWS V14.01,2013-06-17 00:24:00,
2013-06-16 20:29:00,76.7,74.2,30.01,NNW,348,11.0,14.0,92,0.74,,---,0.74,VWS V14.01,2013-06-17 00:29:00,
2013-06-16 20:30:00,76.6,74.1,30.01,NNW,338,6.0,14.0,92,0.77,,---,0.77,VWS V14.01,2013-06-17 00:30:00,
2013-06-16 20:34:00,76.4,74.2,30.02,North,355,3.0,12.0,93,0.84,,---,0.84,VWS V14.01,2013-06-17 00:34:00,
2013-06-16 20:39:00,76.1,73.9,30.02,North,355,9.0,12.0,93,0.94,,---,0.94,VWS V14.01,2013-06-17 00:39:00,
2013-06-16 20:40:00,76.1,73.9,30.02,NNW,338,6.0,12.0,93,0.96,,---,0.96,VWS V14.01,2013-06-17 00:40:00,
2013-06-16 20:44:00,75.9,73.7,30.03,NE,53,5.0,9.0,93,1.00,,---,1.00,VWS V14.01,2013-06-17 00:44:00,
2013-06-16 20:49:00,75.8,73.9,30.05,ENE,58,6.0,12.0,94,1.01,,---,1.01,VWS V14.01,2013-06-17 00:49:00,
2013-06-16 20:50:00,75.9,74.1,30.05,ESE,109,5.0,12.0,94,1.01,,---,1.01,VWS V14.01,2013-06-17 00:50:00,
2013-06-16 20:54:00,75.9,74.1,30.06,NE,47,4.0,7.0,94,1.01,,---,1.01,VWS V14.01,2013-06-17 00:54:00,
2013-06-16 20:59:00,75.9,74.1,30.06,ENE,57,4.0,10.0,94,1.02,,---,1.02,VWS V14.01,2013-06-17 00:59:00,
2013-06-16 21:00:00,75.9,74.1,30.05,ENE,59,4.0,10.0,94,1.02,,---,1.02,VWS V14.01,2013-06-17 01:00:00,
2013-06-16 21:04:00,76.0,74.2,30.05,North,11,3.0,5.0,94,1.01,,---,1.03,VWS V14.01,2013-06-17 01:04:00,
2013-06-16 21:11:00,76.0,74.5,30.05,NE,40,5.0,5.0,95,0.00,,---,1.11,VWS V14.01,2013-06-17 01:11:00,
2013-06-16 21:16:00,75.9,74.4,30.04,NE,40,0.0,5.0,95,0.99,,---,1.16,VWS V14.01,2013-06-17 01:16:00,
2013-06-16 21:21:00,75.7,74.2,30.04,NE,40,3.0,4.0,95,0.72,,---,1.18,VWS V14.01,2013-06-17 01:21:00,
2013-06-16 21:26:00,75.6,74.1,30.04,NE,40,0.0,4.0,95,0.73,,---,1.19,VWS V14.01,2013-06-17 01:26:00,
2013-06-16 21:31:00,75.6,74.1,30.04,East,98,5.0,6.0,95,0.42,,---,1.19,VWS V14.01,2013-06-17 01:31:00,
2013-06-16 21:36:00,75.6,74.1,30.04,East,101,6.0,8.0,95,0.42,,---,1.19,VWS V14.01,2013-06-17 01:36:00,
2013-06-16 21:41:00,75.6,74.1,30.03,East,101,5.0,6.0,95,0.23,,---,1.19,VWS V14.01,2013-06-17 01:41:00,
2013-06-16 21:46:00,75.6,74.1,30.03,East,101,0.0,6.0,95,0.23,,---,1.19,VWS V14.01,2013-06-17 01:46:00,
2013-06-16 21:51:00,75.6,74.1,30.03,East,101,0.0,0.0,95,0.18,,---,1.19,VWS V14.01,2013-06-17 01:51:00,
2013-06-16 21:56:00,75.6,74.1,30.03,East,101,2.0,2.0,95,0.18,,---,1.19,VWS V14.01,2013-06-17 01:56:00,
2013-06-16 22:01:00,75.8,74.6,30.02,East,101,2.0,4.0,96,0.17,,---,1.19,VWS V14.01,2013-06-17 02:01:00,
2013-06-16 22:06:00,76.0,74.5,30.02,East,101,0.0,4.0,95,0.17,,---,1.19,VWS V14.01,2013-06-17 02:06:00,
2013-06-16 22:11:00,76.0,74.5,30.02,East,101,0.0,0.0,95,0.08,,---,1.19,VWS V14.01,2013-06-17 02:11:00,
2013-06-16 22:16:00,76.1,74.6,30.03,East,101,0.0,0.0,95,0.08,,---,1.19,VWS V14.01,2013-06-17 02:16:00,
2013-06-16 22:21:00,76.2,75.0,30.03,East,101,1.0,2.0,96,0.01,,---,1.19,VWS V14.01,2013-06-17 02:21:00,
2013-06-16 22:26:00,76.2,74.7,30.04,East,101,0.0,5.0,95,0.01,,---,1.19,VWS V14.01,2013-06-17 02:26:00,
2013-06-16 22:31:00,76.1,74.6,30.04,East,101,0.0,0.0,95,0.00,,---,1.19,VWS V14.01,2013-06-17 02:31:00,
2013-06-16 22:36:00,76.1,74.9,30.04,East,101,0.0,1.0,96,0.00,,---,1.19,VWS V14.01,2013-06-17 02:36:00,
2013-06-16 22:41:00,76.3,75.1,30.05,East,101,0.0,0.0,96,0.00,,---,1.19,VWS V14.01,2013-06-17 02:41:00,
2013-06-16 22:46:00,76.4,75.2,30.05,East,101,2.0,6.0,96,0.00,,---,1.19,VWS V14.01,2013-06-17 02:46:00,
2013-06-16 22:51:00,76.4,75.2,30.06,East,101,4.0,5.0,96,0.00,,---,1.19,VWS V14.01,2013-06-17 02:51:00,
2013-06-16 22:56:00,76.3,75.1,30.06,NNW,333,0.0,6.0,96,0.00,,---,1.19,VWS V14.01,2013-06-17 02:56:00,
2013-06-16 23:01:00,76.2,75.0,30.06,NNW,333,0.0,0.0,96,0.00,,---,1.19,VWS V14.01,2013-06-17 03:01:00,
2013-06-16 23:06:00,76.2,75.0,30.06,NNW,333,0.0,3.0,96,0.01,,---,1.20,VWS V14.01,2013-06-17 03:06:00,
2013-06-16 23:11:00,76.1,74.9,30.06,NNW,333,0.0,0.0,96,0.02,,---,1.21,VWS V14.01,2013-06-17 03:11:00,
2013-06-16 23:16:00,76.0,74.8,30.06,NNW,333,0.0,0.0,96,0.03,,---,1.22,VWS V14.01,2013-06-17 03:16:00,
2013-06-16 23:21:00,76.0,74.8,30.06,NNW,333,2.0,3.0,96,0.03,,---,1.22,VWS V14.01,2013-06-17 03:21:00,
2013-06-16 23:26:00,76.1,74.9,30.06,NNW,333,0.0,3.0,96,0.03,,---,1.22,VWS V14.01,2013-06-17 03:26:00,
2013-06-16 23:31:00,76.1,74.9,30.05,NNW,333,0.0,0.0,96,0.03,,---,1.22,VWS V14.01,2013-06-17 03:31:00,
2013-06-16 23:36:00,76.2,75.0,30.05,NNW,333,0.0,0.0,96,0.03,,---,1.22,VWS V14.01,2013-06-17 03:36:00,
2013-06-16 23:41:00,76.2,75.0,30.05,NNW,333,0.0,0.0,96,0.03,,---,1.22,VWS V14.01,2013-06-17 03:41:00,
2013-06-16 23:46:00,76.2,75.0,30.04,NNW,333,0.0,0.0,96,0.03,,---,1.22,VWS V14.01,2013-06-17 03:46:00,
2013-06-16 23:51:00,76.3,75.1,30.04,NNW,333,0.0,0.0,96,0.03,,---,1.22,VWS V14.01,2013-06-17 03:51:00,
2013-06-16 23:56:00,76.4,75.2,30.04,NNW,333,0.0,3.0,96,0.03,,---,1.22,VWS V14.01,2013-06-17 03:56:00,